OBJECT G, 60241

Orbit data source: Space-Track

You're viewing an Uncataloged Satellite

Recently launched and/or uncataloged satellites may have evolving metadata. Metadata may include but not limited to: Owner, Maufacturer, Bus, Motor, and Mission.

OBJECT G, 60241 is a satellite in LEO that was launched on Tue, 09 Jul 2024 UTC via an ARIANE 62 launch vehicle from the French Guiana (FRGUI). Unknown objects in Earth's orbit typically refer to objects detected orbiting the Earth but have not yet been identified or cataloged. These objects could be anything from previously untracked satellites, spent rocket stages, debris from satellite collisions, or even natural meteoroids temporarily captured by Earth's gravity.

Loading next visibility...
Identifier
60241, 2024-128G
Orbit
LEO
Last TLE update
12 hours ago
Origin
Flag of TBDORBMAT (TBD)
Manufacturer
ORBMAT
Mission
Commercial Technology
Bus & Motor
CUBESAT 3U, Unknown motor
Mass
5 kg wet, 5 kg dry
Launch date (UTC)
2024-07-09 (1 year ago)
Launch vehicle
ARIANE 62
Launch site
French Guiana (FRGUI)
Object type
Unknown
Shape & HBR
Box, 0.3 m
Radar Cross Section
0.035 m², Small (<0.1 m²)

Expand to show TLE details & history

TLE from 12 hours ago
0 OBJECT G
1 60241U 24128G   25181.88719274  .00003119  00000-0  23738-3 0  9993
2 60241  61.9930   4.6495 0053294  62.5918 298.0581 15.03312652 53420
Epoch: 2025-06-30T21:17Z
TLE epoch observation values (Epoch: 2025-06-30T21:17:33.452Z)
Latitude
0.00002°
Longitude
126.06957°
Altitude
541.23 km
Speed
7.602 km/s
True Right ascension
00h 18m 35s
True Declination
0° 00' 00"
Sunlit
Object was in daylight at epoch
Visualization orbit readout
Latitude
-55.92718°
Longitude
-4.26212°
Altitude
613.815 km
Speed
7.531 km/s
Apparent Right ascension
11h 56m 53s
Apparent Declination
-58° 53' 12"
Sunlit
Object is in full shadow
Visualization observer readout
Local Sidereal Time
21:12:32
Azimuth
219.858° SW
Elevation
-58.004°
Doppler factor
1
Orbital elements
Apogee altitude
592.572 km
Perigee altitude
518.667 km
Semi-major axis
6,933.757 km
Eccentricity
0.00533
Inclination
61.993°
RAAN
4.6495°
Arg. of periapsis
62.5918°
True anomaly
Unknown
Mean anomaly
298.0581°
Eccentric anomaly
Unknown
Mean motion
3.75916 °/min
Orbital period
95.77 mins
BSTAR
0.00023738
Loading maneuver chart data...
Loading SW <> Apogee altitude chart data...
Loading historical data...
Loading historical data...
Loading historical data...
Loading historical data...
Loading historical data...
Loading historical data...
Loading historical data...

OBJECT G Visibility forecast

Observer location: undefined°, undefined°

Span
Click to sort rows by Start time (UTC) header in descending order
Start Az.
Max El. time (UTC)
Max El. Az.
Max El.
End time (UTC)
End Az.
6 mins2025-07-01 13:23:14.429Z173.166° S2025-07-01 13:26:14.429Z120.318° SE23.54°2025-07-01 13:29:14.429Z63.802° ENE
5 mins2025-07-01 15:03:14.429Z270.88° WNW2025-07-01 15:05:14.429Z319.323° NNW25.227°2025-07-01 15:08:14.429Z13.322° NNE
5 mins2025-07-01 21:46:14.429Z7.42° NNE2025-07-01 21:48:14.429Z58.557° ENE25.421°2025-07-01 21:51:14.429Z106.828° ESE
5 mins2025-07-01 23:24:14.429Z289.56° WNW2025-07-01 23:26:14.429Z250.315° W24.262°2025-07-01 23:29:14.429Z190.703° SSW
|